Location: *
(41.5200°N, 20.5700°E)
Time: 14:08:14
(UTC+00:00)

Daily predictions for brighter satellites

Satellite Brightness Start Highest point End
(mag) Time Altitude Azimuth Time Altitude Azimuth Time Altitude Azimuth
Cosmos 2237 Rocket 2.4 17:16:42 10° SSW 17:22:19 84° WNW 17:27:59 10° NNE
Cosmos 371 Rocket 3.3 17:18:58 10° NNW 17:23:49 88° ENE 17:28:39 10° SSE
STARLINK-1222 4.1 17:22:05 10° WSW 17:25:05 41° NNW 17:28:05 10° NE
STARLINK-1211 4.2 17:22:33 10° WSW 17:25:31 41° NNW 17:28:32 10° NE
ISS -1.3 17:23:33 10° NNW 17:25:33 15° N 17:27:33 10° NE
STARLINK-1214 4.2 17:23:00 10° WSW 17:25:59 40° NNW 17:28:59 10° NE
STARLINK-1245 4.2 17:23:29 10° WSW 17:26:27 40° NNW 17:29:25 10° NE
STARLINK-1238 4.2 17:23:52 10° WSW 17:26:51 40° NNW 17:29:51 10° NE
STARLINK-1205 4.2 17:24:48 10° WSW 17:27:46 39° NNW 17:30:44 10° NE
STARLINK-1204 4.3 17:25:18 10° WSW 17:28:14 39° NNW 17:31:12 10° NE
STARLINK-1200 3.7 17:24:22 10° SW 17:28:27 81° NW 17:32:33 10° NE
STARLINK-1118 1.9 17:26:55 10° NW 17:29:06 86° NE 17:31:17 10° SE
CZ-2C R/B 4.3 17:28:16 10° ENE 17:29:15 10° E 17:30:13 10° E
Meteor 2-16 Rocket 4.5 17:23:47 10° N 17:29:57 69° E 17:36:04 10° SSE
Meteor 2-21 Rocket 4.4 17:23:56 10° N 17:30:01 82° E 17:36:05 10° S
STARLINK-1117 4.5 17:26:51 10° NW 17:30:37 36° NNE 17:34:22 10° E
Cosmos 2278 Rocket 2.6 17:25:55 10° NNW 17:31:35 71° WSW 17:37:13 10° SSE
Meteor 2-5 Rocket 3.7 17:26:14 10° N 17:31:53 68° ENE 17:37:23 10° SSE
Cosmos 1892 Rocket 3.7 17:28:24 10° N 17:32:50 58° E 17:37:15 10° SSE
Cosmos 1805 3.2 17:29:10 10° S 17:33:05 82° E 17:37:00 10° N
STARLINK-1192 3.8 17:29:08 10° WSW 17:33:12 74° NW 17:37:17 10° NE
ARGOS 3.9 17:28:44 10° SE 17:33:29 32° ENE 17:38:13 10° N
STARLINK-1078 4.4 17:31:18 10° NW 17:35:07 38° NNE 17:38:55 10° E
STARLINK-1244 3.9 17:34:03 10° WSW 17:38:07 68° NW 17:42:11 10° NE
STARLINK-1108 4.3 17:36:06 10° NW 17:39:57 41° NNE 17:43:33 11° E
Cosmos 494 Rocket 3.9 17:35:05 10° SSW 17:40:12 83° ESE 17:45:25 10° NNE
STARLINK-1138 4.1 17:38:43 10° WSW 17:42:46 63° NW 17:46:50 10° NE
Meteor 1-24 Rocket 3.7 17:37:57 10° N 17:43:25 62° ENE 17:48:42 10° SSE
Okean 1-7 Rocket 3.5 17:40:13 10° N 17:44:36 67° E 17:48:57 10° SSE
STARLINK-1071 4.2 17:40:43 10° NW 17:44:37 44° NNE 17:48:02 13° ESE
CZ-2C R/B 3.4 17:41:29 10° SE 17:46:14 41° ENE 17:50:48 10° N
STARLINK-1143 4.2 17:43:38 10° WSW 17:47:40 58° NNW 17:51:43 10° NE
STARLINK-1110 4.1 17:45:12 10° NW 17:49:08 47° NNE 17:52:21 14° ESE
USA 186 2.5 17:46:59 10° SE 17:50:11 37° ENE 17:53:21 10° N
STARLINK-1124 4.1 17:46:15 10° NW 17:50:18 48° NNE 17:53:33 15° ESE
Cosmos 1544 Rocket 3.6 17:46:18 10° S 17:50:35 56° E 17:54:56 10° NNE
Cosmos 1331 Rocket 3.9 17:45:36 10° NNW 17:50:46 73° ENE 17:55:54 10° SSE
Cosmos 332 Rocket 4.3 17:46:49 10° NNW 17:51:42 66° WSW 17:56:33 10° S
MOS 1 4.5 17:47:49 10° SE 17:53:16 52° ENE 17:58:44 10° N
SPOT 3 Rocket 4.5 17:49:09 10° SE 17:53:31 29° ENE 17:57:59 10° N
USA 81 4.1 17:48:15 10° N 17:53:34 88° E 17:58:49 10° S
Cosmos 1470 3.3 17:50:58 10° SSE 17:54:29 34° E 17:58:01 10° NNE
Cosmos 1745 Rocket 4.1 17:48:57 10° N 17:55:17 83° W 18:01:30 10° S
STARLINK-1241 4.4 17:52:13 10° WSW 17:56:09 50° NNW 18:00:06 10° NE
ATLAS 5 CENTAUR R/B 4.5 17:53:41 10° SSE 17:56:32 12° SE 17:58:53 11° ESE
CZ-4 R/B 4.0 17:54:23 10° SSW 17:57:25 22° W 18:00:27 10° NW
Cosmos 2369 Rocket 3.7 17:54:18 10° N 17:58:29 20° NE 18:01:25 14° E
STARLINK-1122 3.9 17:54:35 10° NW 17:58:35 54° NNE 18:01:25 18° ESE
Ariane Rocket 2.9 17:57:52 10° SSE 18:02:57 83° ENE 18:08:03 10° NNW
STARLINK-1126 3.8 17:59:30 10° NW 18:03:32 59° NE 18:06:09 20° ESE
BREEZE-M DEB (TANK) 2.6 17:55:42 10° SW 18:03:41 85° SSE 18:06:13 13° ENE
SJ-6B 3.2 18:00:40 10° SE 18:04:29 46° ENE 18:08:27 10° N
SJ-11-01 4.4 18:00:35 10° S 18:05:16 82° WSW 18:10:01 10° NNW
Cosmos 1733 3.7 18:02:01 10° SSW 18:05:43 61° W 18:09:28 10° N
Cosmos 1726 4.1 18:08:31 13° ENE 18:08:31 13° ENE 18:09:29 10° NE
Cosmos 1758 3.6 18:04:04 10° SSE 18:08:00 47° E 18:11:57 10° NNE
Meteor 1-22 Rocket 4.3 18:02:43 10° SSW 18:08:00 73° W 18:13:18 10° N
STARLINK-1082 3.7 18:04:01 10° NW 18:08:05 63° NE 18:10:30 23° ESE
ARGOS Delta rocket 4.1 18:03:05 10° S 18:08:08 87° WSW 18:13:30 10° N
IRS-1A Rocket 4.3 18:03:18 10° SSE 18:08:55 87° ENE 18:14:43 10° NNW
Cosmos 1110 Rocket 4.4 18:07:23 10° NNW 18:12:35 64° WSW 18:17:42 10° S
STARLINK-1100 3.6 18:08:52 10° NW 18:12:56 69° NE 18:15:11 25° ESE
CZ-2C R/B 4.0 18:08:25 10° NNE 18:12:58 45° E 18:17:26 10° S
Aureole 2 Rocket 4.4 18:11:43 10° NNE 18:13:43 15° ENE 18:13:43 15° ENE
STARLINK-1083 3.5 18:13:36 10° NW 18:17:41 74° NE 18:19:44 28° ESE
Cosmos 1943 4.2 18:19:43 22° E 18:19:43 22° E 18:24:00 10° NE
Cosmos 1943 Rocket 2.9 18:15:28 10° N 18:20:33 36° ENE 18:23:01 24° ESE
STARLINK-1125 3.5 18:18:10 10° NW 18:22:15 81° NE 18:24:08 31° ESE
ATLAS 2AS CENTAUR R/B 4.5 18:16:44 10° NNW 18:22:20 21° NNE 18:26:55 12° ENE
SL-14 R/B 3.5 18:19:12 10° NNW 18:23:15 74° W 18:27:14 10° S
Cosmos 2315 Rocket 4.0 18:20:31 10° S 18:26:49 90° NNW 18:33:13 10° N
STARLINK-1109 3.5 18:22:54 10° NW 18:27:00 87° NE 18:28:42 34° SE
Resurs 1-3 3.9 18:28:09 31° ESE 18:29:45 44° ENE 18:33:56 10° N
USA 234 3.2 18:24:50 10° NE 18:31:24 87° SE 18:37:58 10° SW
STARLINK-1091 3.5 18:27:43 10° NW 18:31:49 86° SW 18:33:19 38° SE
Meteor 2-15 Rocket 4.3 18:26:40 10° S 18:32:41 73° E 18:38:44 10° NNE
H-2A R/B 2.5 18:27:49 10° S 18:33:07 64° WSW 18:38:18 10° NNW
STARLINK-1066 3.8 18:31:00 10° WNW 18:34:01 42° SW 18:34:49 34° S
Aureole 3 3.4 18:31:26 16° S 18:34:27 63° E 18:39:18 10° NNE
STARLINK-1081 3.8 18:31:29 10° WNW 18:34:28 41° SW 18:35:12 34° S
STARLINK-1070 3.8 18:31:56 10° WNW 18:34:54 41° SW 18:35:38 34° S
STARLINK-1069 3.8 18:32:22 10° WNW 18:35:21 41° SW 18:36:06 34° S
Cosmos 1626 2.9 18:32:05 10° NNW 18:35:41 50° W 18:39:15 10° S
STARLINK-1085 3.9 18:32:48 10° WNW 18:35:48 40° SW 18:36:32 34° S
STARLINK-1086 3.8 18:33:18 10° WNW 18:36:15 39° SW 18:36:56 34° S
STARLINK-1095 3.9 18:33:46 10° WNW 18:36:43 39° SW 18:37:22 34° S
SL-16 R/B 2.9 18:31:15 10° SW 18:36:49 57° WNW 18:42:24 10° NNE
STARLINK-1077 3.9 18:34:12 10° WNW 18:37:09 38° SW 18:37:48 34° SSW
STARLINK-1075 3.9 18:34:40 10° WNW 18:37:35 38° SW 18:38:14 33° SSW
SL-08 RB Rocket 3.6 18:34:24 18° SSE 18:37:46 90° E 18:42:21 10° NNW
STARLINK-1093 3.9 18:35:05 10° WNW 18:38:03 38° SW 18:38:42 33° SSW
STARLINK-1074 3.9 18:35:32 10° WNW 18:38:29 38° SW 18:39:08 33° SSW
STARLINK-1087 3.9 18:36:01 10° WNW 18:38:56 37° SW 18:39:31 33° SSW
STARLINK-1088 3.9 18:36:29 10° WNW 18:39:24 36° SW 18:39:58 33° SSW
Resurs 01 Rocket 2.1 18:38:55 37° E 18:39:31 39° ENE 18:43:38 10° N
STARLINK-1115 4.0 18:36:54 10° WNW 18:39:51 36° SW 18:40:27 33° SSW
DMSP B5D2-2 4.0 18:34:48 10° NNE 18:39:57 60° E 18:45:06 10° S
STARLINK-1076 4.0 18:37:21 10° WNW 18:40:18 36° SW 18:40:53 33° SSW
STARLINK-1092 4.0 18:37:48 10° WNW 18:40:45 36° SW 18:41:19 32° SSW
STARLINK-1080 4.0 18:38:18 10° WNW 18:41:11 35° SW 18:41:42 32° SSW
STARLINK-1090 4.0 18:38:45 10° WNW 18:41:38 34° SW 18:42:08 32° SSW
STARLINK-1072 3.6 18:38:02 10° NW 18:42:04 70° SW 18:43:08 45° SSE
STARLINK-1089 4.0 18:39:12 10° WNW 18:42:05 34° SW 18:42:33 32° SSW
STARLINK-1107 4.0 18:39:40 10° WNW 18:42:32 34° SW 18:43:00 32° SSW
TSX-5 4.0 18:38:03 10° NNW 18:43:13 87° ENE 18:44:37 42° SSE
STARLINK-1096 3.7 18:42:24 10° WNW 18:46:24 64° SW 18:47:19 47° SSE
Nadezhda 1 Rocket 4.5 18:45:16 33° ESE 18:47:01 39° E 18:52:52 10° NNE
Cosmos 1953 2.1 18:47:34 37° S 18:49:03 77° E 18:53:02 10° N
Abrixas rocket 2.4 18:46:26 10° WSW 18:49:06 60° WNW 18:49:06 60° WNW
Cosmos 1302 Rocket 4.4 18:44:46 10° NNW 18:49:59 64° WSW 18:53:40 19° S
STARLINK-1079 3.9 18:47:28 10° WNW 18:51:26 58° SW 18:52:11 48° S
Cosmos 1992 Rocket 4.2 18:46:52 10° N 18:51:58 51° ENE 18:52:57 45° ESE
STARLINK-1103 4.4 18:48:21 10° NW 18:52:15 38° NNE 18:52:45 37° NE
STARLINK-1116 3.9 18:51:55 10° WNW 18:55:51 53° SW 18:56:26 48° S
STARLINK-1101 4.3 18:53:19 10° NW 18:57:15 41° NNE 18:57:32 40° NE
SL-24 R/B 4.3 18:54:02 10° N 18:58:31 65° WNW 19:02:26 10° SSW
Cosmos 1603 3.6 18:53:01 10° S 18:58:34 61° ESE 19:04:07 10° NNE
Meteor 1-16 Rocket 4.0 18:58:28 41° SSE 19:00:09 61° E 19:05:31 10° NNE
Cosmos 2251 Rocket 3.4 18:55:38 10° SSW 19:00:58 85° ESE 19:06:23 10° NNE
STARLINK-1102 4.2 18:58:15 10° NW 19:02:14 44° NNE 19:02:19 44° NNE
ISS -2.1 19:00:14 10° NW 19:02:41 27° N 19:02:41 27° N
STARLINK-1094 4.2 19:01:14 10° WNW 19:05:06 44° SW 19:05:21 43° SSW
Cosmos 2074 Rocket 3.9 18:59:28 10° N 19:05:46 76° E 19:08:17 39° SSE
Cosmos 2084 Rocket 3.6 19:02:33 10° NNW 19:06:58 62° NE 19:06:58 62° NE
STARLINK-1111 4.2 19:03:14 10° NW 19:07:06 47° NNE 19:07:06 47° NNE
STARLINK-1117 4.4 19:06:07 10° WNW 19:09:55 40° SW 19:10:00 40° SW
CZ-2C R/B 2.5 19:05:01 10° NNE 19:10:13 87° WNW 19:14:07 18° SSW
STARLINK-1073 4.2 19:08:12 10° NW 19:11:53 49° NNE 19:11:53 49° NNE
STARLINK-1121 4.2 19:13:09 10° NW 19:16:39 50° N 19:16:39 50° N
Cosmos 292 Rocket 3.6 19:13:28 10° NNW 19:18:16 83° WSW 19:18:32 78° SSW
Cosmos 1610 Rocket 4.4 19:13:53 10° N 19:20:04 63° E 19:20:41 60° ESE
Cosmos 1656 Rocket 4.3 19:15:37 10° N 19:20:40 40° NE 19:20:40 40° NE
STARLINK-1106 4.3 19:18:05 10° NW 19:21:25 49° NNW 19:21:25 49° NNW
MOS 1 Rocket 4.0 19:19:22 10° N 19:24:34 63° WNW 19:29:46 11° SSW
STARLINK-1112 4.5 19:23:05 10° NW 19:26:14 47° NNW 19:26:14 47° NNW
Cosmos 1825 Rocket 4.3 19:34:14 10° NNW 19:37:53 52° NW 19:37:53 52° NW
NOSS 3-4 (A) 4.4 19:35:25 10° NNW 19:41:58 41° NE 19:42:42 40° ENE
NOSS 3-4 (C) 4.4 19:35:31 10° NNW 19:42:04 41° NE 19:42:48 40° ENE
Cosmos 1726 4.1 19:42:57 28° NW 19:42:57 28° NW 19:45:32 10° NNW
Cosmos 2369 Rocket 2.3 19:37:23 10° NNW 19:43:02 67° WSW 19:43:14 66° WSW
Cosmos 2327 Rocket 4.5 19:37:29 10° N 19:43:46 80° W 19:44:38 67° SSW
NOSS 3-3 (A) 4.4 19:42:56 10° SW 19:48:41 59° NW 19:55:09 10° NNE
NOSS 3-3 (C) 4.4 19:43:02 10° SW 19:48:47 60° NW 19:55:16 10° NNE
Cosmos 2263 4.3 19:43:29 10° NNW 19:48:35 73° NW 19:48:35 73° NW
Terra 3.9 19:53:53 19° NNE 19:53:53 19° NNE 19:55:28 10° N
Meteor 2-17 Rocket 4.4 19:47:33 10° N 19:53:42 78° W 19:53:45 78° WSW
Spot 2 Rocket 4.0 19:55:42 57° NW 19:55:42 57° NW 19:59:52 10° NNW
Cosmos 1295 Rocket 4.5 19:50:04 10° N 19:55:56 79° N 19:55:56 79° N
SPOT 1/Viking Rocket 4.4 20:00:50 45° N 20:00:50 45° N 20:04:26 10° NNW
Cosmos 1943 3.9 20:01:03 32° WSW 20:03:21 52° WNW 20:08:54 10° NNE
Cosmos 1943 Rocket 3.4 19:59:19 10° NW 20:04:11 32° WSW 20:04:35 32° WSW
ATLAS 2AS CENTAUR R/B 3.0 20:07:23 10° NNW 20:14:21 62° NNE 20:14:21 62° NNE
Resurs 01 Rocket 4.0 20:16:28 19° W 20:16:28 19° W 20:19:16 10° NW
CZ-4C R/B 4.2 22:34:38 10° NNW 22:38:44 32° N 22:38:44 32° N
SL-16 R/B 4.1 23:52:44 30° N 23:52:44 30° N 23:55:51 10° N
